Metcalfe, MS

11:18 AM CDT on July 23, 2016 (GMT -0500)
Mid Delta Regional

Weather History for KGLH - February, 2014

Change the Weather History Date:

Wednesday, February 12, 2014

  Actual Average Record
Temperature  
Mean Temperature 31 °F 46 °F  
Max Temperature 33 °F 56 °F 79 °F (1922)
Min Temperature 28 °F 35 °F 15 °F (1988)
Degree Days  
Heating Degree Days 34 19  
Month to date heating degree days 346 249  
Since 1 July heating degree days 2342 2038  
Cooling Degree Days 0 0  
Month to date cooling degree days 0 0  
Year to date cooling degree days 0 1  
Moisture  
Dew Point 26 °F    
Average Humidity 80    
Maximum Humidity 85    
Minimum Humidity 75    
Precipitation  
Precipitation 0.05 in 0.20 in 2.05 in (1948)
Month to date precipitation 2.98 2.46  
Year to date precipitation 3.82 7.43  
Sea Level Pressure  
Sea Level Pressure 30.09 in    
Wind  
Wind Speed 8 mph (NNW)    
Max Wind Speed 18 mph    
Max Gust Speed 22 mph    
Visibility 6 miles    
Events Rain    
T = Trace of Precipitation, MM = Missing Value Source: NWS Daily Summary

Daily Weather History Graph

Daily Weather History Graph

Search for Another Location

Airport or City:

Trip Planner

Search our weather history database for the weather conditions in past years. The results will help you decide how hot, cold, wet, or windy it might be!

Date:

Astronomy

Feb. 12, 2014 Rise Set
Actual Time 6:50 AM CST 5:45 PM CST
Civil Twilight 6:25 AM CST 6:11 PM CST
Nautical Twilight 5:56 AM CST 6:40 PM CST
Astronomical Twilight 5:27 AM CST 7:09 PM CST
Moon 4:01 PM CST (2/12) 5:05 AM CST (2/12)
Length of Visible Light 11h 46m
Length of Day
10h 55m
Waxing Gibbous, 95% of the Moon is Illuminated
Feb 12
Waxing Gibbous
Feb 14
Full
Feb 22
Last Quarter
Mar 1
New
Mar 8
First Quarter

Hourly Weather History & Observations

Time (CST) Temp. Windchill Dew Point Humidity Pressure Visibility Wind Dir Wind Speed Gust Speed Precip Events Conditions
12:41 AM 28.4 °F 15.8 °F 24.8 °F 86% 30.17 in 6.0 mi North 18.4 mph - 0.01 in Rain Light Freezing Rain
12:53 AM 28.9 °F 16.9 °F 24.1 °F 82% 30.21 in 6.0 mi North 17.3 mph - 0.01 in Rain Light Freezing Rain
1:53 AM 28.9 °F 17.7 °F 24.1 °F 82% 30.19 in 6.0 mi North 15.0 mph - 0.02 in Rain Light Freezing Rain
2:53 AM 28.0 °F 17.0 °F 23.0 °F 81% 30.17 in 7.0 mi North 13.8 mph - 0.01 in Rain Light Freezing Rain
3:16 AM 28.4 °F 17.5 °F 23.0 °F 80% 30.12 in 8.0 mi North 13.8 mph - 0.00 in   Overcast
3:53 AM 28.0 °F 19.3 °F 23.0 °F 81% 30.14 in 9.0 mi NNE 9.2 mph - 0.00 in   Overcast
4:14 AM 28.4 °F 18.5 °F 23.0 °F 80% 30.10 in 9.0 mi North 11.5 mph - N/A   Overcast
4:53 AM 28.0 °F 18.6 °F 21.9 °F 78% 30.13 in 9.0 mi North 10.4 mph - N/A   Overcast
5:53 AM 28.0 °F 18.1 °F 23.0 °F 81% 30.13 in 9.0 mi NNE 11.5 mph - N/A   Overcast
6:53 AM 28.9 °F 19.2 °F 24.1 °F 82% 30.15 in 7.0 mi North 11.5 mph - 0.00 in Rain Light Freezing Rain
7:53 AM 28.9 °F 19.2 °F 24.1 °F 82% 30.15 in 6.0 mi North 11.5 mph - 0.00 in   Haze
8:38 AM 30.2 °F 20.2 °F 24.8 °F 80% 30.10 in 4.0 mi North 12.7 mph - 0.01 in Rain Light Freezing Rain
8:53 AM 30.0 °F 20.0 °F 25.0 °F 82% 30.13 in 4.0 mi North 12.7 mph - 0.01 in Rain Light Freezing Rain
9:53 AM 30.0 °F 21.1 °F 25.0 °F 82% 30.15 in 5.0 mi North 10.4 mph - 0.00 in Rain Light Freezing Rain
10:15 AM 30.2 °F 21.3 °F 24.8 °F 80% 30.11 in 6.0 mi North 10.4 mph - 0.00 in   Haze
10:33 AM 30.2 °F 20.2 °F 26.6 °F 86% 30.11 in 3.0 mi North 12.7 mph - 0.00 in   Overcast
10:42 AM 30.2 °F 19.8 °F 26.6 °F 86% 30.10 in 2.5 mi North 13.8 mph - 0.00 in Rain Light Freezing Rain
10:53 AM 30.0 °F 19.1 °F 26.1 °F 85% 30.14 in 2.0 mi North 15.0 mph - 0.00 in Rain Light Freezing Rain
11:15 AM 30.2 °F 20.8 °F 26.6 °F 86% 30.10 in 3.0 mi North 11.5 mph - 0.00 in   Overcast
11:53 AM 30.0 °F 20.5 °F 26.1 °F 85% 30.12 in 3.0 mi North 11.5 mph - 0.00 in   Overcast
12:20 PM 30.2 °F 20.8 °F 26.6 °F 86% 30.07 in 2.0 mi North 11.5 mph - 0.00 in   Overcast
12:28 PM 30.2 °F 21.3 °F 26.6 °F 86% 30.06 in 1.8 mi North 10.4 mph - 0.00 in   Overcast
12:53 PM 30.0 °F 21.1 °F 27.0 °F 88% 30.08 in 1.5 mi NW 10.4 mph - 0.00 in Rain Light Freezing Rain
1:39 PM 30.2 °F 21.9 °F 28.4 °F 93% 30.03 in 1.8 mi NW 9.2 mph - 0.00 in   Overcast
1:49 PM 30.2 °F 21.9 °F 28.4 °F 93% 30.02 in 2.0 mi NNW 9.2 mph - 0.00 in   Overcast
1:53 PM 30.9 °F 22.8 °F 28.0 °F 89% 30.06 in 2.0 mi NNW 9.2 mph - 0.00 in   Overcast
2:14 PM 30.2 °F 23.4 °F 28.4 °F 93% 30.01 in 3.0 mi NW 6.9 mph - N/A   Overcast
2:53 PM 30.9 °F 22.8 °F 27.0 °F 85% 30.04 in 5.0 mi NNW 9.2 mph - N/A   Overcast
3:13 PM 30.2 °F 21.3 °F 26.6 °F 86% 30.00 in 5.0 mi NW 10.4 mph - N/A   Overcast
3:53 PM 30.9 °F 22.8 °F 27.0 °F 85% 30.04 in 5.0 mi NW 9.2 mph - N/A   Overcast
4:53 PM 32.0 °F 24.8 °F 27.0 °F 82% 30.03 in 6.0 mi NNW 8.1 mph - N/A   Haze
5:53 PM 32.0 °F 27.5 °F 27.0 °F 82% 30.04 in 6.0 mi North 4.6 mph - N/A   Haze
6:19 PM 32.0 °F 27.5 °F 26.6 °F 80% 30.03 in 7.0 mi NW 4.6 mph - N/A   Overcast
6:53 PM 32.0 °F 28.7 °F 27.0 °F 82% 30.07 in 8.0 mi NW 3.5 mph - N/A   Overcast
7:53 PM 32.0 °F - 26.1 °F 79% 30.08 in 9.0 mi Calm Calm - N/A   Overcast
8:48 PM 32.0 °F - 26.6 °F 80% 30.04 in 8.0 mi Calm Calm - N/A   Overcast
8:53 PM 32.0 °F - 26.1 °F 79% 30.07 in 8.0 mi Calm Calm - N/A   Overcast
9:26 PM 32.0 °F - 24.8 °F 75% 30.04 in 8.0 mi Calm Calm - N/A   Mostly Cloudy
9:53 PM 30.9 °F - 26.1 °F 82% 30.07 in 8.0 mi Calm Calm - N/A   Overcast
10:53 PM 32.0 °F 28.7 °F 26.1 °F 79% 30.07 in 8.0 mi WNW 3.5 mph - N/A   Overcast
11:53 PM 32.0 °F - 26.1 °F 79% 30.06 in 8.0 mi Calm Calm - N/A   Overcast